Regional Weather Roundup
Issued by NWS

Home | Current Version | Previous Version | Graphics & Text | Print | Product List | Glossary On
Versions: 1 2 3 4 5 6 7 8 9 10 11 12 13 14 15 16 17 18 19 20 21 22 23 24 25 26 27 28 29 30 31 32 33 34 35 36 37 38 39 40 41 42 43 44 45 46 47 48 49 50
966
ASUS44 KLIX 211710
RWRLA
LOUISIANA WEATHER ROUNDUP
NATIONAL WEATHER SERVICE NEW ORLEANS LA
1200 PM CDT SUN SEP 21 2014

NOTE: "FAIR" INDICATES FEW OR NO CLOUDS BELOW 12,000 FEET WITH NO
      SIGNIFICANT WEATHER AND/OR OBSTRUCTIONS TO VISIBILITY.
      SKY/WX - SKY CONDITION AND SIGNIFICANT WEATHER.
      TMP - AIR TEMPERATURE.    DP   - DEWPOINT TEMPERATURE.
      RH  - RELATIVE HUMIDITY.  PRES - PRESSURE.
      HX  - HEAT INDEX.         WCI  - WIND CHILL INDEX.

*  THESE STATIONS ARE NOT NWS OR FAA STATIONS AND ARE NOT UNDER
   NWS QUALITY CONTROL.

LAZ040-048-061>063-065-066-069-211800-
SOUTHEAST LOUISIANA

CITY           SKY/WX    TMP DP  RH WIND       PRES   REMARKS
N.O. AUDUBON     N/A     87  70  56 MISG        N/A
N.O. INTL ARPT MOSUNNY   85  66  53 NE12      30.04S
N.O. LAKEFRONT SUNNY     84  70  62 NE12      30.04S
N.O. DOWNTOWN* PTSUNNY   86  66  51 NE7       30.04S
SLIDELL        SUNNY     85  68  56 N7        30.04S
BATON ROUGE    SUNNY     85  67  54 VRB7      30.05S
BOOTHVILLE     CLOUDY    83  75  77 NE8       30.02S
BELLE CHASSE   MOSUNNY   86  70  58 E10       30.03R
BOGALUSA*        N/A     86  68  54 E7        30.06S
GALLIANO*      NOT AVBL
NEW ROADS*     FAIR      83  70  63 NE6       30.06S
GONZALES*      FAIR      84  69  60 NE5       30.05S
HAMMOND*       MOSUNNY   86  64  48 NE7       30.07S
HOUMA*         MOSUNNY   84  54  34 N9        30.03S
PORT FOURCHON* MOSUNNY   84  73  70 NE12      30.05S

$$

LAZ041-044-053-054-211800-
SOUTHWEST LOUISIANA

CITY           SKY/WX    TMP DP  RH WIND       PRES   REMARKS
LAKE CHARLES   MOSUNNY   86  71  60 NE8       30.05S
LAFAYETTE      SUNNY     86  68  54 E9        30.05S
PATTERSON      SUNNY     84  72  65 NE12      30.06S
SALT POINT       N/A     88  69  53 VRB7      30.02S
NEW IBERIA     SUNNY     87  68  52 NE14      30.05S
CHENAULT AIRPK MOSUNNY   84  72  65 VRB6      30.06R

$$

LAZ027-028-211800-
CENTRAL LOUISIANA

CITY           SKY/WX    TMP DP  RH WIND       PRES   REMARKS
FORT POLK      MOSUNNY   85  69  58 VRB3      30.07F
ALEXANDRIA INT SUNNY     88  71  57 NE6       30.04F
ALEXANDRIA     MOSUNNY   89  70  53 N5        30.06F

$$

LAZ001-002-211800-
NORTHWEST LOUISIANA

CITY           SKY/WX    TMP DP  RH WIND       PRES   REMARKS
SHREVEPORT     MOSUNNY   91  65  41 N7        30.07F
BARKSDALE AFB  SUNNY     89  66  45 VRB5      30.07F
DTN SHREVEPORT SUNNY     89  66  46 NW6       30.07F

$$

LAZ014-016-211800-
NORTHEAST LOUISIANA

CITY           SKY/WX    TMP DP  RH WIND       PRES   REMARKS
MONROE         SUNNY     88  69  53 VRB5      30.07F
TALLULAH       SUNNY     88  67  49 CALM      30.06F

$$




USA.gov is the U.S. government's official web portal to all federal, state and local government web resources and services.